QPF
0.00 0.00 0.00 0.00 0.00 0.00 0.00 0.00 0.00 0.00 0.00 0.00 0.00 0.00 0.00 0.10 0.12 0.01 0.01 0.00 0.00 0.00 0.00 0.00 0.00 0.00 0.00 0.00 0.00 0.00 0.00 0.00 0.00 0.00 0.00 0.00 0.00 0.00 0.00 0.00 0.00 0.00 0.00 0.01
0.00 0.00 0.00 0.00 0.00 0.00 0.00 0.00 0.00 0.00 0.00 0.00 0.00 0.00 0.00 0.01 0.04 0.03 0.01 0.03 0.00 0.00 0.00 0.00 0.00 0.00 0.00 0.00 0.00 0.00 0.00 0.00 0.00 0.00 0.00 0.00 0.00 0.00 0.00 0.00 0.00 0.00 0.00 0.02
0.00 0.00 0.00 0.00 0.00 0.00 0.00 0.00 0.00 0.00 0.00 0.00 0.00 0.00 0.00 0.00 0.00 0.06 0.05 0.00 0.00 0.00 0.00 0.00 0.00 0.00 0.00 0.00 0.00 0.00 0.00 0.00 0.00 0.00 0.00 0.00 0.00 0.00 0.00 0.00 0.00 0.00 0.00 0.01
0.00 0.00 0.00 0.00 0.00 0.00 0.00 0.00 0.00 0.00 0.00 0.00 0.00 0.00 0.00 0.00 0.00 0.00 0.00 0.00 0.00 0.00 0.00 0.00 0.00 0.00 0.00 0.00 0.00 0.00 0.00 0.00 0.00 0.00 0.00 0.00 0.00 0.00 0.00 0.00 0.00 0.00 0.00 0.00
0.00 0.00 0.00 0.00 0.00 0.00 0.00 0.00 0.00 0.00 0.00 0.00 0.00 0.00 0.00 0.00 0.00 0.00 0.00 0.00 0.00 0.00 0.00 0.00 0.00 0.00 0.00 0.00 0.00 0.00 0.00 0.00 0.00 0.00 0.00 0.00 0.00 0.00 0.00 0.00 0.00 0.00 0.00 0.00
0.00 0.00 0.00 0.00 0.00 0.00 0.00 0.00 0.00 0.00 0.00 0.00 0.00 0.00 0.00 0.00 0.00 0.00 0.00 0.00 0.00 0.00 0.00 0.00 0.00 0.00 0.00 0.00 0.00 0.00 0.00 0.00 0.00 0.00 0.00 0.00 0.00 0.00 0.00 0.00 0.00 0.00 0.00 0.00
0.00 0.00 0.00 0.00 0.00 0.00 0.00 0.00 0.00 0.00 0.00 0.00 0.00 0.00 0.00 0.00 0.00 0.00 0.00 0.00 0.00 0.00 0.00 0.00 0.00 0.00 0.00 0.00 0.00 0.00 0.00 0.00 0.00 0.00 0.00 0.00 0.00 0.00 0.00 0.00 0.00 0.00 0.00 0.00
0.00 0.00 0.00 0.00 0.00 0.00 0.00 0.00 0.00 0.00 0.00 0.00 0.00 0.00 0.00 0.00 0.00 0.00 0.00 0.00 0.00 0.00 0.00 0.00 0.00 0.00 0.00 0.00 0.00 0.00 0.00 0.00 0.00 0.00 0.00 0.00 0.00 0.00 0.00 0.00 0.00 0.00 0.00 0.00
0.00 0.00 0.00 0.00 0.00 0.00 0.00 0.00 0.00 0.00 0.00 0.00 0.00 0.00 0.00 0.00 0.00 0.00 0.00 0.00 0.00 0.00 0.00 0.00 0.00 0.00 0.00 0.00 0.00 0.00 0.00 0.00 0.00 0.00 0.00 0.00 0.00 0.00 0.00 0.00 0.00 0.00 0.00 0.00
0.00 0.00 0.00 0.00 0.00 0.00 0.00 0.00 0.00 0.00 0.00 0.00 0.00 0.00 0.00 0.00 0.00 0.00 0.00 0.00 0.00 0.00 0.00 0.00 0.00 0.00 0.00 0.00 0.00 0.00 0.00 0.00 0.00 0.00 0.00 0.00 0.00 0.00 0.00 0.00 0.00 0.00 0.00 0.00
0.00 0.00 0.00 0.00 0.00 0.00 0.00 0.00 0.00 0.00 0.00 0.00 0.00 0.00 0.00 0.00 0.00 0.00 0.00 0.00 0.00 0.00 0.00 0.00 0.00 0.00 0.00 0.00 0.00 0.00 0.00 0.00 0.00 0.00 0.00 0.00 0.00 0.00 0.00 0.00 0.00 0.00 0.00 0.00
0.00 0.00 0.00 0.00 0.00 0.00 0.00 0.00 0.00 0.00 0.00 0.00 0.00 0.00 0.00 0.00 0.00 0.00 0.00 0.00 0.00 0.00 0.00 0.00 0.00 0.00 0.00 0.00 0.00 0.00 0.00 0.00 0.00 0.00 0.00 0.00 0.00 0.00 0.00 0.00 0.00 0.00 0.00 0.00
0.00 0.00 0.00 0.00 0.00 0.00 0.00 0.00 0.00 0.00 0.00 0.00 0.00 0.00 0.00 0.00 0.00 0.00 0.00 0.00 0.00 0.00 0.00 0.00 0.00 0.00 0.00 0.00 0.00 0.00 0.00 0.00 0.00 0.00 0.00 0.00 0.00 0.00 0.00 0.00 0.00 0.00 0.00 0.00
0.00 0.00 0.00 0.00 0.00 0.00 0.00 0.00 0.00 0.00 0.00 0.00 0.00 0.00 0.00 0.00 0.00 0.00 0.00 0.00 0.00 0.00 0.00 0.00 0.00 0.00 0.00 0.00 0.00 0.00 0.00 0.00 0.00 0.00 0.00 0.00 0.00 0.00 0.00 0.00 0.00 0.00 0.00 0.00
0.00 0.00 0.00 0.00 0.00 0.00 0.00 0.00 0.00 0.00 0.00 0.00 0.00 0.00 0.00 0.00 0.00 0.00 0.00 0.00 0.00 0.00 0.00 0.00 0.00 0.00 0.00 0.00 0.00 0.00 0.00 0.00 0.00 0.00 0.00 0.00 0.00 0.00 0.00 0.00 0.00 0.00 0.00 0.00
0.00 0.00 0.00 0.00 0.00 0.00 0.00 0.00 0.00 0.00 0.00 0.00 0.00 0.00 0.00 0.00 0.00 0.00 0.00 0.00 0.00 0.00 0.00 0.00 0.00 0.00 0.00 0.00 0.00 0.00 0.00 0.00 0.00 0.00 0.00 0.00 0.00 0.00 0.00 0.00 0.00 0.00 0.00 0.00
0.00 0.00 0.00 0.00 0.00 0.00 0.00 0.00 0.00 0.00 0.00 0.00 0.00 0.00 0.00 0.00 0.00 0.00 0.00 0.00 0.00 0.00 0.00 0.00 0.00 0.00 0.00 0.00 0.00 0.00 0.00 0.00 0.00 0.00 0.00 0.00 0.00 0.00 0.00 0.00 0.00 0.00 0.00 0.00
0.00 0.00 0.00 0.00 0.00 0.00 0.00 0.00 0.00 0.00 0.00 0.00 0.00 0.00 0.00 0.00 0.00 0.00 0.00 0.00 0.00 0.00 0.00 0.00 0.00 0.00 0.00 0.00 0.00 0.00 0.00 0.00 0.00 0.00 0.00 0.00 0.00 0.00 0.00 0.00 0.00 0.00 0.00 0.00
0.00 0.00 0.00 0.00 0.00 0.00 0.00 0.00 0.00 0.00 0.00 0.00 0.00 0.00 0.00 0.00 0.00 0.00 0.00 0.00 0.00 0.00 0.00 0.00 0.00 0.00 0.00 0.00 0.00 0.00 0.00 0.00 0.00 0.00 0.00 0.00 0.00 0.00 0.00 0.00 0.00 0.00 0.00 0.00
0.00 0.00 0.00 0.00 0.00 0.00 0.00 0.00 0.00 0.00 0.00 0.00 0.00 0.00 0.00 0.00 0.00 0.00 0.00 0.00 0.00 0.00 0.00 0.00 0.00 0.00 0.00 0.00 0.00 0.00 0.00 0.00 0.00 0.00 0.00 0.00 0.00 0.00 0.00 0.00 0.00 0.00 0.00 0.00
0.00 0.00 0.00 0.00 0.00 0.00 0.00 0.00 0.00 0.00 0.00 0.00 0.00 0.00 0.00 0.00 0.00 0.00 0.00 0.00 0.00 0.00 0.00 0.00 0.00 0.00 0.00 0.00 0.00 0.00 0.00 0.00 0.00 0.00 0.00 0.00 0.00 0.00 0.00 0.00 0.00 0.00 0.00 0.00
0.00 0.00 0.00 0.00 0.00 0.00 0.00 0.00 0.00 0.00 0.00 0.00 0.00 0.00 0.00 0.00 0.00 0.00 0.00 0.00 0.00 0.00 0.00 0.00 0.00 0.00 0.00 0.00 0.00 0.00 0.00 0.00 0.00 0.00 0.00 0.00 0.00 0.00 0.00 0.00 0.00 0.00 0.00 0.00
0.00 0.00 0.00 0.00 0.00 0.00 0.00 0.00 0.00 0.00 0.00 0.00 0.00 0.00 0.00 0.00 0.00 0.00 0.00 0.00 0.00 0.00 0.00 0.00 0.00 0.00 0.00 0.00 0.00 0.00 0.00 0.00 0.00 0.00 0.00 0.00 0.00 0.00 0.00 0.00 0.00 0.00 0.00 0.00
0.00 0.00 0.00 0.00 0.00 0.00 0.00 0.00 0.00 0.00 0.00 0.00 0.00 0.00 0.00 0.00 0.00 0.00 0.00 0.00 0.00 0.00 0.00 0.00 0.00 0.00 0.00 0.00 0.00 0.00 0.00 0.00 0.00 0.00 0.00 0.00 0.00 0.00 0.00 0.00 0.00 0.00 0.00 0.00
0.00 0.00 0.00 0.00 0.00 0.00 0.00 0.00 0.00 0.00 0.00 0.00 0.00 0.00 0.00 0.00 0.00 0.00 0.00 0.00 0.00 0.00 0.00 0.00 0.00 0.00 0.00 0.00 0.00 0.00 0.00 0.00 0.00 0.00 0.00 0.00 0.00 0.00 0.00 0.00 0.00 0.00 0.00 0.00
0.00 0.00 0.00 0.00 0.00 0.00 0.00 0.00 0.00 0.00 0.00 0.00 0.00 0.00 0.00 0.00 0.00 0.00 0.00 0.00 0.00 0.00 0.00 0.00 0.00 0.00 0.00 0.00 0.00 0.00 0.00 0.00 0.00 0.00 0.00 0.00 0.00 0.00 0.00 0.00 0.00 0.00 0.00 0.00
MSLP
997.53 997.16 995.81 995.91 996.23 996.33 995.46 994.76 994.34 993.55 993.36 993.65 994.34 995.61 998.17 1000.51 1001.85 1001.96 1000.17 1001.09 1001.91 1002.06 1003.14 1004.20 1005.20 1006.18 1007.24 1008.41 1009.57 1010.61 1011.46 1012.24 1013.07 1013.77 1014.41 1014.57 1014.69 1014.76 1015.02 1014.92 1014.97 1015.47 1015.60 1016.05
997.01 995.09 995.71 996.24 996.26 995.95 995.29 994.33 993.43 993.16 992.50 993.10 993.95 994.85 997.58 999.13 999.78 1001.51 1000.55 1002.27 1000.95 1001.27 1002.33 1003.37 1004.58 1005.55 1006.64 1007.84 1009.03 1010.19 1011.05 1011.85 1012.58 1013.17 1013.84 1014.21 1014.25 1014.43 1014.69 1014.73 1014.80 1015.00 1015.43 1015.86
994.80 994.42 995.51 995.28 995.17 995.11 994.67 994.03 993.04 992.41 992.07 992.61 993.50 994.21 995.14 997.24 997.87 998.30 1001.34 999.11 999.09 999.86 1001.30 1002.71 1003.86 1004.75 1005.93 1007.15 1008.33 1009.48 1010.52 1011.32 1012.04 1012.69 1013.41 1013.84 1014.04 1014.12 1014.30 1014.46 1014.71 1014.90 1015.20 1015.47
994.43 994.27 994.05 994.26 994.14 994.25 993.79 993.97 993.33 992.41 991.90 991.70 992.66 993.07 993.75 994.57 995.27 996.52 996.62 996.64 997.58 998.69 1000.20 1001.78 1002.90 1004.07 1005.13 1006.34 1007.63 1008.80 1009.88 1010.83 1011.61 1012.30 1012.87 1013.26 1013.50 1013.63 1013.85 1014.02 1014.22 1014.52 1014.79 1014.99
992.25 992.93 992.77 992.93 992.97 993.47 993.12 993.47 993.53 992.90 992.23 991.91 991.55 991.87 991.91 992.99 993.15 993.54 994.15 994.74 995.98 997.35 998.76 1000.40 1001.91 1003.25 1004.11 1005.39 1006.72 1008.06 1009.22 1010.26 1011.05 1011.85 1012.27 1012.73 1013.04 1013.25 1013.35 1013.59 1013.70 1014.03 1014.36 1014.49
992.32 992.37 992.02 991.55 992.43 992.53 993.08 993.06 993.19 993.37 992.83 991.67 991.32 991.57 991.27 991.05 991.72 991.93 992.43 993.29 994.28 995.76 997.43 998.98 1000.76 1002.39 1003.62 1004.70 1005.92 1007.15 1008.49 1009.62 1010.53 1011.29 1011.88 1012.15 1012.49 1012.80 1013.05 1013.11 1013.25 1013.41 1013.84 1014.32
991.60 990.92 990.91 990.60 991.07 991.86 992.20 992.41 992.23 992.13 991.84 990.95 991.80 991.08 990.05 989.67 990.03 990.78 991.13 992.07 992.94 994.29 995.90 997.80 999.51 1001.04 1002.54 1003.65 1004.87 1006.20 1007.54 1008.84 1009.79 1010.48 1011.19 1011.67 1011.93 1012.39 1012.58 1012.62 1012.78 1012.89 1013.20 1013.56
990.01 989.91 989.21 989.25 989.45 990.19 990.83 991.19 990.72 990.72 991.08 991.74 991.77 989.91 989.36 989.55 988.98 989.20 989.77 990.93 992.10 993.00 994.53 996.39 998.08 999.73 1001.36 1002.67 1003.83 1004.96 1006.33 1007.62 1008.64 1009.49 1010.12 1010.85 1011.38 1011.51 1011.97 1012.26 1012.06 1012.37 1012.43 1012.60
989.27 988.45 989.10 988.64 989.33 989.53 989.97 989.88 990.95 991.20 991.08 990.80 990.20 990.20 989.79 989.26 988.82 988.68 988.82 989.55 990.58 991.84 993.30 995.11 996.70 998.51 1000.09 1001.58 1002.84 1003.87 1005.19 1006.38 1007.33 1008.19 1009.09 1009.86 1010.61 1010.95 1010.97 1011.54 1011.81 1011.86 1012.02 1012.05
989.25 988.78 988.00 988.02 988.73 988.94 988.53 990.28 990.77 990.61 989.96 989.30 988.72 987.92 987.47 987.90 987.98 988.36 988.56 988.83 989.62 990.80 992.23 993.92 995.63 997.47 998.94 1000.15 1001.44 1002.94 1004.07 1005.25 1006.16 1007.05 1007.99 1008.65 1009.27 1009.96 1010.38 1010.75 1011.24 1011.36 1011.68 1011.76
990.69 989.24 987.47 987.38 986.89 987.34 988.37 988.60 989.83 990.28 989.89 989.07 987.87 986.28 985.28 985.93 986.56 987.20 988.01 988.61 989.34 989.91 991.23 992.75 994.43 996.10 997.71 999.09 1000.52 1001.90 1003.27 1004.41 1005.55 1006.39 1006.91 1007.62 1008.18 1009.00 1009.66 1010.06 1010.37 1010.87 1011.16 1011.50
990.40 989.28 988.00 986.37 986.06 987.22 987.76 988.07 988.44 988.80 989.10 988.75 987.53 986.03 985.64 984.51 985.66 986.69 987.24 987.99 989.06 989.60 990.44 991.87 993.36 994.96 996.51 998.14 999.44 1000.48 1001.89 1003.15 1004.08 1005.11 1006.13 1006.86 1007.58 1008.12 1008.72 1009.28 1009.57 1010.03 1010.48 1010.91
993.94 990.06 988.52 987.28 985.79 985.84 986.33 987.22 988.01 988.50 988.94 988.10 987.56 986.65 986.37 985.83 985.95 986.55 987.25 987.88 988.66 989.56 990.20 991.14 992.42 993.84 995.38 996.73 998.14 999.38 1000.59 1001.64 1003.02 1004.34 1005.24 1006.02 1006.64 1007.20 1007.66 1008.28 1008.89 1009.19 1009.70 1010.09
995.66 992.40 989.31 986.61 985.39 985.19 985.86 986.64 987.32 987.57 987.47 987.65 987.17 987.02 986.98 986.71 986.95 986.94 987.36 988.08 988.64 989.49 990.18 990.77 991.66 992.81 994.16 995.70 996.93 998.18 999.39 1000.35 1001.64 1002.82 1003.91 1004.82 1005.47 1006.09 1006.73 1007.33 1007.89 1008.42 1008.67 1009.20
995.12 992.97 990.93 988.36 986.82 985.52 985.71 986.18 986.38 986.41 986.63 987.01 986.53 986.53 986.92 987.33 987.58 987.85 988.07 988.54 988.95 989.47 990.02 990.51 991.08 992.05 993.19 994.49 995.95 997.17 998.00 999.14 1000.08 1001.33 1002.30 1003.13 1004.17 1004.93 1005.81 1006.34 1006.77 1007.37 1007.85 1008.11
996.73 994.07 992.26 989.86 988.31 987.17 985.66 985.43 986.00 986.19 986.27 986.45 986.26 985.95 986.62 987.56 988.12 988.59 989.06 989.47 989.71 990.11 990.59 991.19 991.84 992.47 993.31 994.10 994.96 996.16 997.06 997.91 999.03 999.89 1000.72 1001.92 1002.84 1003.71 1004.47 1005.24 1005.75 1006.38 1006.89 1007.36
998.73 996.14 994.10 991.66 990.20 988.16 986.49 985.37 985.24 985.96 986.10 986.20 985.96 986.22 986.81 987.63 988.42 989.35 989.93 990.32 990.71 991.11 991.39 991.87 992.38 992.82 993.26 993.88 994.70 995.36 996.19 997.09 998.01 998.99 999.79 1000.59 1001.56 1002.49 1003.34 1004.07 1004.81 1005.45 1005.89 1006.42
1000.07 998.20 996.04 993.36 991.41 989.23 987.43 986.51 986.23 985.78 985.90 986.18 986.36 986.36 986.97 987.62 988.66 989.61 990.46 991.12 991.61 991.87 992.20 992.42 992.60 992.81 993.14 993.70 993.99 994.75 995.63 996.63 997.46 998.24 998.93 999.64 1000.51 1001.46 1002.38 1003.18 1003.85 1004.51 1004.97 1005.30
1000.20 999.40 997.13 994.58 992.56 990.64 988.57 987.42 986.92 986.80 986.70 986.98 986.93 987.30 988.09 988.88 989.42 990.34 991.13 991.75 992.42 992.93 993.06 993.24 993.11 992.93 992.91 993.22 993.64 994.17 994.99 995.85 996.80 997.47 998.02 998.77 999.52 1000.34 1001.26 1001.95 1002.61 1003.29 1003.95 1004.31
999.96 999.53 998.72 995.93 993.69 991.38 990.10 988.12 987.57 987.89 988.71 989.10 988.95 989.19 989.41 990.30 991.22 992.05 992.55 993.01 993.62 993.97 994.29 994.28 994.10 993.94 993.81 993.80 993.07 993.59 994.42 995.12 996.00 996.64 997.31 998.08 998.76 999.38 1000.01 1000.73 1001.51 1002.26 1002.81 1003.16
999.74 999.72 998.86 997.49 995.51 992.73 991.88 990.45 989.35 990.20 993.13 992.38 991.84 991.43 991.42 992.26 993.43 993.91 994.23 994.72 995.04 995.21 995.31 995.08 994.82 994.55 994.35 994.25 994.25 994.44 994.89 994.92 995.00 995.64 996.46 997.19 997.78 998.40 999.07 999.93 1000.70 1001.39 1001.97 1002.46
999.76 999.83 999.40 998.27 996.55 995.10 994.86 993.29 993.26 994.48 994.85 994.77 994.75 994.77 994.68 994.86 995.04 995.28 995.61 995.84 995.90 995.92 995.89 995.59 995.13 994.85 994.54 994.46 994.47 994.22 994.34 994.57 994.84 995.11 995.63 996.40 997.11 997.80 998.39 999.18 999.96 1000.61 1001.33 1001.75
1001.05 1000.55 999.28 998.80 997.39 995.89 996.20 995.78 995.95 995.97 996.15 996.38 996.61 996.74 996.80 996.68 996.68 996.88 996.89 996.69 996.64 996.54 996.56 996.50 995.96 995.24 994.78 994.53 994.27 994.33 994.26 994.42 994.58 994.83 995.18 995.74 996.49 997.22 997.92 998.72 999.65 1000.27 1000.92 1001.25
1001.73 1000.47 1000.23 999.91 998.91 997.82 997.50 997.40 997.23 997.42 997.48 997.64 997.72 997.84 997.97 997.87 997.67 997.54 997.60 997.55 997.49 997.44 997.15 997.17 996.74 995.68 994.80 994.30 994.18 994.32 994.54 994.70 994.72 994.66 994.93 995.44 996.08 996.79 997.55 998.39 999.40 1000.11 1000.42 1000.88
1003.79 1002.77 1001.95 1001.20 1000.14 999.39 998.68 998.65 998.52 998.51 998.47 998.58 998.74 998.72 998.64 998.63 998.50 998.54 998.54 998.41 998.37 998.28 997.97 997.63 996.92 995.83 995.17 994.75 994.28 994.43 994.48 994.47 994.52 994.44 994.69 995.11 995.57 996.36 997.13 998.62 999.53 1000.05 1000.58 1000.92
1005.58 1004.62 1004.12 1002.83 1001.87 1001.43 1000.32 999.36 998.86 998.64 998.71 998.58 998.84 998.85 998.95 999.01 999.12 999.25 999.33 999.47 999.32 998.86 998.56 997.96 997.02 996.21 995.76 995.36 995.17 995.16 994.89 994.18 994.16 994.26 994.41 994.74 994.97 995.64 996.46 998.50 1000.21 1001.07 1001.46 1001.49
Thickness
5805 5789 5795 5808 5814 5816 5821 5821 5819 5846 5867 5858 5854 5851 5836 5819 5804 5808 5838 5838 5826 5831 5831 5831 5828 5827 5823 5819 5813 5809 5805 5804 5801 5796 5791 5793 5794 5799 5800 5802 5803 5801 5801 5798
5787 5796 5812 5813 5812 5811 5815 5817 5828 5849 5873 5862 5855 5855 5837 5823 5815 5802 5827 5799 5833 5837 5832 5832 5829 5829 5825 5820 5816 5811 5808 5806 5804 5802 5799 5799 5802 5804 5804 5804 5805 5805 5803 5801
5794 5811 5813 5809 5806 5801 5808 5811 5827 5843 5865 5865 5854 5840 5857 5842 5842 5829 5785 5844 5856 5847 5836 5832 5830 5831 5830 5824 5820 5815 5812 5810 5808 5806 5804 5803 5805 5806 5805 5806 5807 5807 5805 5804
5796 5814 5809 5805 5801 5810 5794 5827 5832 5843 5850 5828 5859 5808 5843 5862 5862 5847 5857 5864 5859 5854 5848 5840 5837 5834 5834 5831 5828 5822 5816 5813 5811 5810 5806 5803 5801 5801 5808 5811 5812 5811 5809 5808
5803 5805 5808 5799 5809 5817 5811 5831 5826 5833 5835 5842 5847 5832 5851 5864 5859 5871 5873 5876 5867 5864 5857 5849 5843 5840 5842 5840 5835 5828 5822 5817 5815 5812 5810 5807 5806 5809 5814 5814 5814 5814 5814 5813
5803 5823 5817 5824 5824 5827 5830 5821 5823 5824 5824 5801 5832 5829 5831 5851 5859 5875 5883 5883 5877 5871 5865 5862 5855 5849 5845 5845 5841 5836 5828 5821 5819 5816 5813 5813 5811 5813 5812 5815 5816 5818 5817 5815
5789 5801 5823 5835 5813 5823 5817 5804 5779 5774 5779 5784 5831 5826 5844 5881 5886 5883 5885 5884 5888 5882 5874 5865 5858 5854 5849 5848 5846 5842 5834 5826 5825 5822 5819 5818 5818 5817 5817 5819 5819 5820 5819 5819
5772 5766 5811 5831 5823 5811 5809 5808 5786 5755 5770 5784 5824 5811 5838 5883 5904 5905 5905 5894 5894 5892 5882 5874 5869 5864 5856 5854 5852 5848 5841 5835 5833 5830 5828 5826 5824 5825 5823 5823 5826 5824 5825 5827
5776 5783 5820 5829 5829 5828 5809 5797 5829 5804 5820 5805 5821 5832 5859 5879 5884 5897 5906 5906 5899 5897 5888 5881 5879 5873 5865 5860 5857 5855 5848 5843 5842 5839 5835 5833 5830 5830 5831 5828 5828 5829 5829 5831
5786 5772 5814 5823 5828 5829 5826 5831 5789 5804 5775 5785 5820 5833 5834 5856 5868 5883 5890 5900 5904 5903 5895 5888 5884 5877 5874 5871 5867 5861 5857 5850 5849 5847 5843 5841 5840 5837 5836 5834 5829 5830 5828 5829
5769 5773 5796 5818 5803 5804 5808 5807 5806 5815 5812 5795 5805 5842 5898 5878 5882 5883 5888 5896 5900 5907 5899 5894 5890 5886 5881 5876 5870 5865 5860 5855 5851 5851 5850 5847 5846 5842 5838 5835 5833 5830 5828 5827
5762 5767 5762 5795 5832 5829 5821 5814 5818 5792 5788 5817 5832 5848 5894 5906 5897 5893 5893 5898 5900 5908 5906 5900 5896 5891 5884 5878 5875 5872 5868 5863 5861 5858 5853 5850 5847 5846 5842 5837 5836 5834 5830 5829
5703 5738 5745 5763 5808 5822 5809 5816 5820 5822 5822 5806 5806 5831 5884 5893 5894 5892 5888 5894 5896 5899 5906 5902 5899 5894 5889 5886 5882 5878 5874 5872 5867 5861 5857 5853 5850 5848 5846 5843 5840 5839 5835 5832
5685 5715 5740 5759 5787 5821 5798 5807 5816 5818 5803 5808 5823 5836 5853 5869 5872 5884 5886 5890 5893 5894 5899 5901 5899 5897 5894 5890 5887 5884 5881 5881 5876 5871 5865 5858 5856 5853 5851 5848 5845 5842 5841 5836
5686 5695 5732 5768 5800 5822 5812 5806 5814 5811 5825 5808 5836 5842 5845 5854 5865 5874 5881 5885 5886 5890 5897 5900 5901 5897 5896 5892 5890 5889 5889 5887 5886 5878 5874 5869 5864 5860 5855 5853 5851 5848 5845 5844
5655 5683 5713 5730 5769 5782 5794 5813 5813 5817 5826 5834 5843 5852 5867 5859 5867 5866 5866 5868 5870 5875 5880 5885 5890 5890 5889 5889 5892 5891 5891 5892 5889 5886 5883 5878 5872 5867 5863 5858 5856 5852 5849 5847
5629 5658 5680 5701 5742 5764 5763 5795 5812 5815 5830 5834 5826 5851 5863 5848 5845 5851 5855 5860 5859 5863 5871 5876 5880 5885 5888 5892 5895 5892 5894 5895 5892 5888 5888 5885 5879 5873 5869 5865 5860 5855 5852 5851
5610 5631 5662 5693 5718 5701 5766 5802 5807 5815 5830 5842 5848 5860 5865 5858 5851 5846 5856 5851 5852 5858 5862 5870 5879 5885 5890 5895 5898 5898 5896 5893 5890 5889 5889 5889 5884 5878 5874 5869 5863 5859 5857 5854
5617 5618 5642 5675 5691 5726 5752 5777 5787 5787 5799 5832 5840 5849 5846 5845 5843 5832 5846 5850 5848 5851 5858 5863 5876 5884 5890 5893 5895 5894 5892 5893 5890 5890 5891 5890 5888 5882 5878 5873 5870 5866 5861 5858
5618 5625 5627 5663 5675 5691 5740 5779 5797 5798 5763 5803 5813 5815 5821 5822 5795 5801 5826 5832 5832 5837 5841 5847 5857 5868 5874 5878 5893 5890 5887 5889 5888 5892 5892 5891 5889 5886 5883 5879 5874 5871 5867 5863
5601 5606 5617 5638 5653 5707 5721 5745 5773 5732 5719 5756 5773 5786 5797 5788 5787 5798 5814 5814 5821 5827 5832 5844 5851 5856 5864 5873 5878 5875 5880 5884 5897 5898 5894 5890 5891 5888 5887 5881 5877 5872 5867 5864
5598 5596 5605 5628 5644 5650 5691 5715 5698 5702 5719 5730 5740 5748 5753 5766 5776 5783 5792 5800 5809 5816 5824 5833 5841 5849 5860 5866 5867 5870 5873 5884 5891 5890 5890 5889 5887 5886 5884 5879 5875 5871 5865 5861
5586 5595 5610 5622 5642 5678 5672 5669 5678 5689 5698 5709 5719 5730 5737 5747 5756 5766 5776 5790 5800 5806 5813 5820 5827 5841 5852 5859 5866 5865 5873 5880 5883 5883 5883 5883 5882 5880 5878 5873 5867 5863 5860 5857
5579 5598 5596 5603 5623 5641 5647 5658 5667 5673 5681 5691 5704 5714 5726 5734 5747 5758 5770 5778 5787 5795 5803 5807 5814 5827 5839 5855 5861 5865 5869 5872 5873 5876 5877 5877 5875 5872 5871 5869 5865 5860 5858 5854
5556 5565 5570 5577 5598 5615 5633 5641 5651 5659 5672 5681 5690 5701 5711 5723 5732 5742 5751 5760 5769 5779 5788 5796 5806 5820 5831 5841 5852 5859 5863 5866 5866 5870 5871 5871 5871 5867 5865 5856 5857 5860 5852 5851
5547 5550 5550 5562 5579 5585 5605 5634 5646 5654 5661 5676 5683 5693 5704 5715 5720 5728 5738 5746 5753 5764 5773 5784 5799 5810 5819 5829 5835 5840 5849 5860 5860 5860 5863 5865 5866 5865 5862 5848 5841 5828 5828 5828